Regional Weather Roundup
Issued by NWS Midland/Odessa, TX

Skip options and go directly to product.
Home | Oldest Version | Next Version | Current Version | All | Text Only | Save Text | Print | Product List | Glossary On

Skip product version selection by date and time.   
379
ASUS44 KMAF 172201
RWRMAF
MIDLAND AREA WEATHER ROUNDUP
NATIONAL WEATHER SERVICE MIDLAND TX
400 PM CST WED DEC 17 2014

...IN SOUTHWEST TEXAS AND SOUTHEAST NEW MEXICO...

CITY           SKY/WX    TMP DP  RH WIND       PRES   REMARKS
ALPINE         SUNNY     65  24  21 W16G24    30.07R
ANDREWS        FAIR      63  34  34 W17G23    29.94F
ARTESIA        SUNNY     63  28  27 W21G32    29.93S
BIG SPRING     MOSUNNY   59  45  60 S12       29.98F
CARLSBAD       SUNNY     64  28  25 W20G29    29.94S
DRYDEN           N/A     55  47  74 SE7       29.99R
FORT STOCKTON  SUNNY     65  36  34 VRB5      29.98R
GUAD PASS      NOT AVBL
HOBBS          MOSUNNY   59  32  36 SW22G30   29.95S
MARFA          SUNNY     61  25  25 SW16G25   30.05S
MIDLAND AIRPK  SUNNY     65  34  31 W16       29.96S
MIDLAND INTL   SUNNY     65  35  33 SW15      29.95S
ODESSA         SUNNY     65  32  29 W16       29.96S
PECOS          SUNNY     69  28  21 W22G32    29.96S
PRESIDIO       FAIR      69  36  29 NW8       29.97F
SEMINOLE       SUNNY     62  34  34 SW20G25   29.95F
SNYDER         CLOUDY    50  45  85 S7        29.99S
WINK           SUNNY     68  28  22 W23G33    29.94R
$$
...OTHER STATIONS IN TEXAS...

CITY           SKY/WX    TMP DP  RH WIND       PRES   REMARKS
ABILENE        CLOUDY    51  40  65 S8        30.02S
AMARILLO       CLOUDY    40  35  83 SE15      29.95F WCI  32
AUSTIN         CLOUDY    52  52 100 CALM      30.05F
BROWNSVILLE    CLOUDY    74  66  76 SE15G23   29.98F
CORPUS CHRISTI CLOUDY    73  64  73 SE18G28   29.99F
DALLAS FTW     TSTM      44  39  82 CALM      30.12R
DEL RIO        CLOUDY    54  48  80 E7        30.01S
EL PASO        MOSUNNY   61  29  29 W17       30.00S
HOUSTON INT    CLOUDY    63  53  70 SE13      30.10F
LUBBOCK        PTSUNNY   56  41  57 SE14      29.92F
SAN ANGELO     CLOUDY    58  48  69 S10       29.99F
SAN ANTONIO    CLOUDY    54  50  86 NE5       30.03S
WACO           CLOUDY    48  44  86 CALM      30.08R
WICHITA FALLS  NOT AVBL
$$
...OTHER LOCATIONS IN NEW MEXICO...

CITY           SKY/WX    TMP DP  RH WIND       PRES   REMARKS
ALAMAGORDO     PTSUNNY   55  32  41 W16       30.01R
ALBUQUERQUE    CLOUDY    43  34  70 S3        29.97S
CANNON AFB     NOT AVBL
CLOVIS         PTSUNNY   54  36  50 SW12      29.91S
HOLLOMAN AFB   PTSUNNY   56  33  41 SW23      29.99R
ROSWELL        SUNNY     62  29  28 W21       29.90F
RUIDOSO        PTSUNNY   41  30  65 W20G29    29.99R WCI  32
SANTA FE       CLOUDY    34  31  88 SW12      29.95S WCI  25
TRUTH OR CONSE CLOUDY    56  29  35 SW16G23   29.96S
TUCUMCARI      PTSUNNY   57  29  34 SW22G30   29.87S
$$

USA.gov is the U.S. government's official web portal to all federal, state and local government web resources and services.